Weather History for Buckland, AK

Change the Weather History Date:

Monday, January 21, 2013

  Actual Average (PASK) Record (PASK)
Temperature  
Mean Temperature 8 °F -  
Max Temperature 14 °F 0 °F 30 °F (2008)
Min Temperature 0 °F -8 °F -50 °F (2006)
Degree Days  
Heating Degree Days 58    
Moisture  
Dew Point 3 °F    
Average Humidity 74    
Maximum Humidity 92    
Minimum Humidity 43    
Precipitation  
Precipitation 0.00 in - - ()
Sea Level Pressure  
Sea Level Pressure 30.13 in    
Wind  
Wind Speed 12 mph (SE)    
Max Wind Speed 21 mph    
Max Gust Speed 28 mph    
Visibility 10 miles    
Events      
Averages and records for this station are not official NWS values.
T = Trace of Precipitation, MM = Missing Value Source: NWS Daily Summary

Daily Weather History Graph

Daily Weather History Graph

Search for Another Location

Airport:

Trip Planner

Search our weather history database for the weather conditions in past years. The results will help you decide how hot, cold, wet, or windy it might be!

Date:

Astronomy

Jan. 21, 2013 Rise Set
Actual Time 11:16 AM AKST 4:36 PM AKST
Civil Twilight 10:04 AM AKST 5:48 PM AKST
Nautical Twilight 8:56 AM AKST 6:56 PM AKST
Astronomical Twilight 7:55 AM AKST 7:57 PM AKST
Moon 12:08 PM AKST (1/21) 7:09 AM AKST (1/21)
Length of Visible Light 7h 43m
Length of Day
5h 20m
Waxing Gibbous, 76% of the Moon is Illuminated
Jan 21
Waxing Gibbous
Jan 26
Full
Feb 3
Last Quarter
Feb 9
New
Feb 17
First Quarter

Hourly Weather History & Observations

Time (AKST) Temp. Windchill Dew Point Humidity Pressure Visibility Wind Dir Wind Speed Gust Speed Precip Events Conditions
12:16 AM 10.4 °F -6.0 °F 5.0 °F 79% 30.08 in 10.0 mi SE 15.0 mph 21.9 mph N/A   Unknown
12:36 AM 10.4 °F -6.0 °F 6.8 °F 85% 30.09 in 10.0 mi ESE 15.0 mph - N/A   Unknown
12:56 AM 12.2 °F -2.5 °F 6.8 °F 79% 30.11 in 10.0 mi ESE 12.7 mph 18.4 mph N/A   Unknown
1:16 AM 12.2 °F -5.3 °F 6.8 °F 79% 30.10 in 10.0 mi ESE 18.4 mph 25.3 mph N/A   Unknown
1:36 AM 12.2 °F -6.3 °F 6.8 °F 79% 30.10 in 10.0 mi ESE 20.7 mph 24.2 mph N/A   Unknown
1:56 AM 12.2 °F -5.8 °F 6.8 °F 79% 30.10 in 10.0 mi ESE 19.6 mph 26.5 mph N/A   Unknown
2:16 AM 12.2 °F -5.3 °F 6.8 °F 79% 30.10 in 10.0 mi ESE 18.4 mph 27.6 mph N/A   Unknown
2:36 AM 12.2 °F -3.1 °F 6.8 °F 79% 30.11 in 10.0 mi ESE 13.8 mph 19.6 mph N/A   Unknown
2:56 AM 12.2 °F 0.7 °F 6.8 °F 79% 30.12 in 10.0 mi East 8.1 mph 17.3 mph N/A   Unknown
3:16 AM 12.2 °F -4.3 °F 6.8 °F 79% 30.12 in 10.0 mi ESE 16.1 mph 20.7 mph N/A   Unknown
3:36 AM 12.2 °F -4.8 °F 6.8 °F 79% 30.11 in 10.0 mi ESE 17.3 mph 24.2 mph N/A   Unknown
3:56 AM 12.2 °F -5.8 °F 5.0 °F 73% 30.11 in 10.0 mi SE 19.6 mph 26.5 mph N/A   Unknown
4:16 AM 12.2 °F -5.8 °F 6.8 °F 79% 30.11 in 10.0 mi SE 19.6 mph 25.3 mph N/A   Unknown
4:36 AM 12.2 °F -4.8 °F 6.8 °F 79% 30.12 in 10.0 mi SE 17.3 mph 23.0 mph N/A   Unknown
4:56 AM 12.2 °F -2.5 °F 6.8 °F 79% 30.13 in 10.0 mi SSE 12.7 mph - N/A   Unknown
5:16 AM 12.2 °F -1.0 °F 6.8 °F 79% 30.13 in 10.0 mi SE 10.4 mph - N/A   Unknown
5:36 AM 12.2 °F -0.2 °F 6.8 °F 79% 30.14 in 10.0 mi SE 9.2 mph 19.6 mph N/A   Unknown
5:56 AM 12.2 °F 1.7 °F 6.8 °F 79% 30.14 in 10.0 mi SE 6.9 mph - N/A   Unknown
6:16 AM 12.2 °F -1.8 °F 6.8 °F 79% 30.14 in 10.0 mi ESE 11.5 mph - N/A   Unknown
6:36 AM 12.2 °F -1.8 °F 6.8 °F 79% 30.14 in 10.0 mi ESE 11.5 mph 18.4 mph N/A   Unknown
6:56 AM 14.0 °F -0.8 °F 6.8 °F 73% 30.13 in 10.0 mi SE 13.8 mph 18.4 mph N/A   Unknown
7:16 AM 14.0 °F -2.0 °F 6.8 °F 73% 30.13 in 10.0 mi ESE 16.1 mph - N/A   Unknown
7:36 AM 14.0 °F -0.2 °F 6.8 °F 73% 30.13 in 10.0 mi ESE 12.7 mph - N/A   Unknown
7:56 AM 14.0 °F -2.5 °F 6.8 °F 73% 30.14 in 10.0 mi ESE 17.3 mph 23.0 mph N/A   Unknown
8:16 AM 14.0 °F -0.2 °F 6.8 °F 73% 30.14 in 10.0 mi ESE 12.7 mph - N/A   Unknown
8:36 AM 14.0 °F 1.2 °F 6.8 °F 73% 30.14 in 10.0 mi ESE 10.4 mph - N/A   Unknown
8:56 AM 14.0 °F -0.8 °F 6.8 °F 73% 30.14 in 10.0 mi ESE 13.8 mph - N/A   Unknown
9:16 AM 14.0 °F 1.2 °F 6.8 °F 73% 30.14 in 10.0 mi ESE 10.4 mph - N/A   Unknown
9:36 AM 14.0 °F 1.2 °F 6.8 °F 73% 30.15 in 10.0 mi SE 10.4 mph - N/A   Unknown
9:56 AM 14.0 °F -1.4 °F 6.8 °F 73% 30.15 in 10.0 mi ESE 15.0 mph - N/A   Unknown
10:16 AM 14.0 °F -0.2 °F 6.8 °F 73% 30.15 in 10.0 mi ESE 12.7 mph 17.3 mph N/A   Unknown
10:36 AM 14.0 °F -0.8 °F 6.8 °F 73% 30.15 in 10.0 mi ESE 13.8 mph 17.3 mph N/A   Unknown
10:56 AM 14.0 °F -0.8 °F 6.8 °F 73% 30.16 in 10.0 mi East 13.8 mph 20.7 mph N/A   Unknown
11:16 AM 14.0 °F -0.8 °F 5.0 °F 67% 30.16 in 10.0 mi ESE 13.8 mph 19.6 mph N/A   Unknown
11:36 AM 14.0 °F 2.0 °F 5.0 °F 67% 30.16 in 10.0 mi ESE 9.2 mph - N/A   Unknown
11:56 AM 14.0 °F 1.2 °F 5.0 °F 67% 30.16 in 10.0 mi ESE 10.4 mph - N/A   Unknown
12:16 PM 14.0 °F -0.8 °F 5.0 °F 67% 30.16 in 10.0 mi ESE 13.8 mph 18.4 mph N/A   Unknown
12:36 PM 12.2 °F -3.7 °F 3.2 °F 67% 30.16 in 10.0 mi ESE 15.0 mph - N/A   Unknown
12:56 PM 12.2 °F -3.1 °F 3.2 °F 67% 30.16 in 10.0 mi ESE 13.8 mph - N/A   Unknown
1:16 PM 12.2 °F 1.7 °F 3.2 °F 67% 30.17 in 10.0 mi SE 6.9 mph - N/A   Unknown
1:36 PM 10.4 °F -3.3 °F 3.2 °F 73% 30.17 in 10.0 mi East 10.4 mph - N/A   Unknown
1:56 PM 10.4 °F -2.4 °F 1.4 °F 67% 30.17 in 10.0 mi ESE 9.2 mph - N/A   Unknown
2:16 PM 8.6 °F -3.7 °F 1.4 °F 73% 30.17 in 10.0 mi ESE 8.1 mph - N/A   Unknown
2:36 PM 10.4 °F -0.4 °F 1.4 °F 67% 30.17 in 10.0 mi SSE 6.9 mph - N/A   Unknown
2:56 PM 8.6 °F 2.0 °F 1.4 °F 73% 30.16 in 10.0 mi SSE 3.5 mph - N/A   Unknown
3:16 PM 8.6 °F -1.3 °F -0.4 °F 67% 30.16 in 10.0 mi SE 5.8 mph - N/A   Unknown
3:36 PM 8.6 °F -2.6 °F 1.4 °F 73% 30.16 in 10.0 mi ESE 6.9 mph - N/A   Unknown
3:56 PM 6.8 °F -2.0 °F -0.4 °F 72% 30.16 in 10.0 mi SSE 4.6 mph - N/A   Unknown
4:16 PM 6.8 °F -3.5 °F -2.2 °F 67% 30.16 in 10.0 mi SE 5.8 mph - N/A   Unknown
4:36 PM 6.8 °F -4.8 °F -0.4 °F 72% 30.15 in 10.0 mi SSE 6.9 mph - N/A   Unknown
4:56 PM 8.6 °F -3.7 °F 3.2 °F 79% 30.16 in 10.0 mi SE 8.1 mph - N/A   Unknown
5:16 PM 6.8 °F -3.5 °F 1.4 °F 79% 30.15 in 10.0 mi SE 5.8 mph - N/A   Unknown
5:36 PM 6.8 °F -3.5 °F -0.4 °F 72% 30.15 in 10.0 mi ESE 5.8 mph - N/A   Unknown
5:56 PM 6.8 °F -4.8 °F -2.2 °F 67% 30.14 in 10.0 mi SSE 6.9 mph - N/A   Unknown
6:16 PM 8.6 °F -3.7 °F -2.2 °F 62% 30.13 in 10.0 mi SE 8.1 mph - N/A   Unknown
6:36 PM 8.6 °F -2.6 °F -0.4 °F 67% 30.14 in 10.0 mi SE 6.9 mph - N/A   Unknown
6:56 PM 8.6 °F -2.6 °F 3.2 °F 79% 30.14 in 10.0 mi SSE 6.9 mph - N/A   Unknown
7:16 PM 6.8 °F -3.5 °F 1.4 °F 79% 30.13 in 10.0 mi SE 5.8 mph - N/A   Unknown
7:36 PM 6.8 °F -3.5 °F 3.2 °F 85% 30.12 in 10.0 mi South 5.8 mph - N/A   Unknown
7:56 PM 6.8 °F -7.8 °F 1.4 °F 79% 30.12 in 10.0 mi SE 10.4 mph - N/A   Unknown
8:16 PM 6.8 °F -0.1 °F -0.4 °F 72% 30.12 in 10.0 mi SSE 3.5 mph - N/A   Unknown
8:36 PM 5.0 °F -5.6 °F -13.0 °F 43% 30.11 in 10.0 mi South 5.8 mph - N/A   Unknown
8:56 PM 5.0 °F -8.1 °F -7.6 °F 56% 30.11 in 10.0 mi SE 8.1 mph - N/A   Unknown
9:16 PM 6.8 °F -0.1 °F 1.4 °F 79% 30.11 in 10.0 mi ENE 3.5 mph - N/A   Unknown
9:36 PM 6.8 °F -4.8 °F 3.2 °F 85% 30.10 in 10.0 mi SE 6.9 mph - N/A   Unknown
9:56 PM 6.8 °F -3.5 °F -2.2 °F 67% 30.11 in 10.0 mi East 5.8 mph - N/A   Unknown
10:16 PM 3.2 °F - -5.8 °F 66% 30.10 in 10.0 mi Calm Calm - N/A   Unknown
10:36 PM 1.4 °F - -2.2 °F 85% 30.10 in 10.0 mi Calm Calm - N/A   Unknown
10:56 PM 3.2 °F - 1.4 °F 92% 30.10 in 10.0 mi Calm Calm - N/A   Unknown
11:16 PM 1.4 °F - -4.0 °F 78% 30.10 in 10.0 mi Calm Calm - N/A   Unknown
11:36 PM 3.2 °F -6.2 °F -5.8 °F 66% 30.09 in 10.0 mi SE 4.6 mph - N/A   Unknown
11:56 PM -0.4 °F - -7.6 °F 72% 30.09 in 10.0 mi Calm Calm - N/A   Unknown